Flag for Germany Weather past 2 weeks in Dinslaken, North Rhine-Westphalia, Germany

Now
71 °F

Sunny.


Feels Like: 77 °F
Forecast: 61 / 71 °F
Wind: 2 mph from East

Location: Essen

Current Time: Jul 24, 2014 at 10:08:08 PM

Latest Report: Jul 24, 2014 at 9:00 PM


Visibility: 38 mi

Pressure: 29.97 "Hg

Humidity: 51%

Dew point: 52 °F

Location of DinslakenLocation

Historic Weather in Dinslaken — Graph

°F

Dinslaken temperature yesterday

Maximum temperature yesterday: 82 °F (at 5:00 PM)
Minimum temperature yesterday: 66 °F (at 6:00 AM)
Average temperature yesterday: 75 °F

Past Weeks' High & Low Weather Summary

 TemperatureHumidityPressure
High92 °F (Jul 19, 5:00 PM)99% (Jul 9, 11:00 PM)30.19 "Hg (Jul 9, 11:00 PM)
Low56 °F (Jul 15, 6:00 AM)27% (Jul 19, 1:00 PM)29.68 "Hg (Jul 9, 9:00 PM)
Average70 °F72%29.95 "Hg
* Reported Jul 9 9:00 PM — Jul 24 9:00 PM, Dinslaken, Weather by CustomWeather, © 2014

Note: Actual official high and low records may vary slightly from our data, if they occured in-between our weather recording intervals... More about our weather records

Advertising

Dinslaken weather history for previous 24 hours

 ConditionsComfort  
Time TempWeatherWind HumidityBarometerVisibility
9:00 PM
Jul 24
71 °FSunny.2 mph51%29.97 "Hg37 mi
8:00 PM73 °FSunny.5 mph48%29.95 "Hg28 mi
7:00 PM75 °FPassing clouds.6 mph45%29.95 "Hg28 mi
6:00 PM77 °FPartly sunny.6 mph42%29.94 "Hg34 mi
5:00 PM75 °FOvercast.6 mph46%29.95 "Hg28 mi
4:00 PM79 °FScattered clouds.5 mph41%29.94 "Hg31 mi
3:00 PM78 °FPassing clouds.5 mph43%29.95 "Hg25 mi
2:00 PM77 °FSunny.5 mph45%29.96 "Hg19 mi
1:00 PM75 °FSunny.6 mph46%29.97 "Hg16 mi
12:00 PM73 °FSunny.6 mph56%29.98 "Hg12 mi
11:00 AM72 °FSunny.6 mph59%29.98 "Hg19 mi
10:00 AM71 °FSunny.3 mph58%29.98 "Hg22 mi
9:00 AM67 °FPassing clouds.5 mph65%29.99 "Hg17 mi
8:00 AM66 °FOvercast.5 mph70%29.99 "Hg16 mi
7:00 AM63 °FSunny.5 mph77%29.99 "Hg16 mi
6:00 AM62 °FSunny.3 mph78%29.98 "Hg17 mi
5:00 AM64 °FClear.5 mph73%29.99 "Hg19 mi
4:00 AM65 °FClear.3 mph70%30.00 "Hg19 mi
3:00 AM67 °FClear.3 mph68%30.00 "Hg19 mi
2:00 AM68 °FClear.3 mph67%30.01 "Hg22 mi
1:00 AM70 °FClear.2 mph66%30.01 "Hg19 mi
12:00 AM72 °FClear.3 mph60%30.02 "Hg22 mi
11:00 PM
Jul 23
74 °FClear.5 mph57%30.02 "Hg22 mi
10:00 PM76 °FClear.5 mph54%30.01 "Hg22 mi
Weather by CustomWeather, © 2014

See weather overviewHow to use our weather pages